Location: Ash Swamp
(41.5170°N, 74.6157°W)
Time: 16:05:31
(UTC+00:00)

ATLAS 2AS CENTAUR R/B - Pass Details

Date: 14 July 2020
Orbit: 930 x 1282 km, 63.7° (Epoch: 19 July)

Event Time Altitude Azimuth Distance (km) Brightness Sun altitude
Rises 03:30:05 0° 317° (NW) 4,108 7.0 -23.2°
Reaches altitude 10° 03:33:14 10° 308° (NW) 3,088 5.9 -23.4°
Maximum altitude 03:39:27 31° 250° (WSW) 1,840 3.9 -23.9°
Enters shadow 03:41:53 25° 216° (SW) 2,035 3.9 -24.0°
